{"data":{"norad_id":68150,"intl_designator":"2026-049J","name":"STARLINK-37060","alt_names":[],"object_type":"PAYLOAD","status":"ACTIVE","operator":null,"country":"US","launch_date":"2026-03-13","launch_site_code":"AFWTR","launch_vehicle":null,"mission":null,"orbit_class":"UNKNOWN","rcs_meters":null,"size_class":null,"mass_kg":null,"dimensions":null,"purposes":["comms"],"wikipedia_slug":null,"has_3d_model":false,"image_url":null,"decayed_at":null,"tle_current":{"epoch":"2026-05-25T01:29:48.668640Z","epoch_age_seconds":63607,"freshness":"FRESH","line1":"1 68150U 26049J   26145.06236885  .00013569  00000+0  42188-3 0  9996","line2":"2 68150  97.2840 166.7519 0001535 100.7418 259.3997 15.33444589 11352","mean_motion":15.33444589,"eccentricity":0.0001535,"inclination_deg":97.284,"raan_deg":166.7519,"arg_perigee_deg":100.7418,"mean_anomaly_deg":259.3997,"bstar":0.00042188,"rev_number":1135,"period_min":93.906229825954,"perigee_km":464.49389223075,"apogee_km":466.59490241973,"semimajor_km":6843.6813973252,"source":"CELESTRAK","updated_at":"2026-05-25T13:38:21.847989Z"}}}